[[{"header":{"parameterUnit":"m.s-1","parameterCategory":1,"la1":30.2991,"la2":30.254,"lo1":-89.0895,"lo2":-89.0444,"dy":0.0017,"dx":0.0017,"nx":28,"ny":28,"refTime":"2024-08-03T09:00:00:Z","depth":0,"parameterNumber":2,"parameterNumberName":"U-component_of_WINDS"},"data":[0,0,0,0,0,0,0,0,0,0,0,0,0,0,0,0,0,0,0,0,0,0,0,0,0,0,0,0,0,0,0,0,0,0,0,0,0,0,0,0,0,0,0,0,0,0,0,0,0,0,0,0,0,0,0,0,0,0,-3.7585,-3.7586,0,-3.7673,-3.7674,-3.7675,-3.7584,-3.758,-3.7577,-3.7573,-3.7669,-3.7675,-3.768,0,0,0,0,0,0,0,0,0,0,0,0,0,-3.7343,-3.7348,-3.7585,-3.7586,-3.7587,-3.7673,-3.7674,-3.7675,-3.7584,-3.758,-3.7576,-3.7572,-3.7667,-3.7674,-3.7681,0,0,0,0,0,0,0,0,0,0,0,0,0,-3.7441,-3.7349,-3.7584,-3.7552,-3.755,-3.7672,-3.7674,-3.7675,-3.7585,-3.758,-3.7575,-3.757,-3.7665,-3.7673,-3.7682,-3.7843,0,0,-3.7709,-3.7713,0,0,0,0,0,0,0,0,-3.7436,-3.745,-3.7555,-3.7554,-3.7552,-3.7612,-3.7624,-3.7732,-3.7587,-3.7572,-3.7573,-3.7567,-3.7655,-3.7664,-3.7692,-3.7848,-3.7852,-3.771,-3.7715,-3.7719,-3.7721,0,0,0,0,0,0,0,-3.7429,-3.7446,-3.762,-3.7557,-3.7555,-3.7534,-3.7543,-3.7644,-3.7642,-3.7573,-3.7566,-3.7578,-3.7653,-3.7684,-3.7694,-3.7853,-3.7709,-3.7717,-3.7723,-3.7726,-3.8146,-3.8152,0,0,0,0,0,0,-3.7425,-3.7441,-3.7617,-3.7622,-3.7479,-3.7543,-3.7552,-3.7598,-3.7641,-3.7642,-3.7582,-3.7573,-3.7672,-3.7684,-3.7697,-3.7888,-3.7719,-3.7727,-3.7732,-3.814,-3.8148,-3.8154,0,0,0,0,0,0,-3.742,-3.7442,-3.7613,-3.753,-3.755,-3.7553,-3.7605,-3.7603,-3.7634,-3.7648,-3.7648,-3.7614,-3.7668,-3.7685,-3.7807,-3.789,-3.7731,-3.7739,-3.8133,-3.8143,-3.8151,-3.8273,0,0,0,0,0,0,-3.7414,-3.7441,-3.75,-3.7532,-3.7555,-3.7721,-3.761,-3.7608,-3.7648,-3.7638,-3.7678,-3.7679,-3.7665,-3.7795,-3.7816,-3.79,-3.7746,-3.8126,-3.8138,-3.8148,-3.8261,-3.8285,-3.8305,0,0,0,0,0,-3.7406,-3.7532,-3.7504,-3.7526,-3.7629,-3.7725,-3.7739,-3.7718,-3.7656,-3.7716,-3.7726,-3.7678,-3.7878,-3.7808,-3.7831,-3.7919,-3.8121,-3.8134,-3.8147,-3.8252,-3.828,-3.8304,0,0,0,0,0,0,-3.7512,-3.7536,-3.7504,-3.7645,-3.7684,-3.771,-3.7786,-3.7749,-3.7808,-3.7795,-3.7769,-3.7779,-3.7909,-3.7926,-3.7847,-3.8078,-3.799,-3.8008,-3.8061,-3.8088,-3.8109,-3.8102,-3.7753,0,0,0,0,0,-3.7551,-3.7625,-3.7643,-3.7765,-3.7786,-3.7783,-3.7824,-3.7805,-3.7845,-3.7861,-3.788,-3.7922,-3.7994,-3.8042,-3.811,-3.8264,-3.8272,-3.8336,-3.8358,-3.8375,-3.8392,-3.8475,-3.8504,-3.8197,-3.8197,-3.8197,0,0,-3.7634,-3.7656,-3.7705,-3.7787,-3.7815,-3.7894,-3.7798,-3.7885,-3.7944,-3.7875,-3.7991,-3.8007,-3.8053,-3.8192,-3.8254,-3.8211,-3.8478,-3.8392,-3.8406,-3.8413,-3.8492,-3.8521,-3.8547,-3.8206,-3.8205,-3.8203,0,0,-3.7824,-3.7849,-3.7953,-3.7983,-3.8026,-3.8023,-3.8049,-3.8081,-3.8088,-3.8204,-3.8154,-3.8226,-3.8351,-3.8385,-3.8419,-3.8625,-3.8584,-3.8648,-3.8761,-3.8843,-3.8867,-3.8889,-3.8962,-3.8989,-3.8665,-3.8665,-3.8665,0,-3.7922,-3.8037,-3.8012,-3.8103,-3.8141,-3.8082,-3.8188,-3.8219,-3.8283,-3.8312,-3.8262,-3.8418,-3.8444,-3.8591,-3.8641,-3.8671,-3.87,-3.8643,-3.8866,-3.8887,-3.8906,-3.8976,-3.9004,-3.8672,-3.8672,-3.8671,-3.867,0,-3.8156,-3.8237,-3.8316,-3.8378,-3.8425,-3.8524,-3.8515,-3.8567,-3.8544,-3.8548,-3.8668,-3.8698,-3.877,-3.8804,-3.8784,-3.8949,-3.8921,-3.8869,-3.878,-3.8943,-3.9009,-3.9035,-3.8683,-3.868,-3.8678,-3.8676,0,0,-3.8414,-3.846,-3.849,-3.8517,-3.8561,-3.8625,-3.8722,-3.8791,-3.8836,-3.8883,-3.8965,-3.9073,-3.9025,-3.9064,-3.9047,-3.912,-3.9281,-3.9059,-3.906,-3.9099,-3.9466,-3.9504,-3.9536,-3.9255,-3.926,-3.9264,-3.9462,0,-3.8605,-3.8771,-3.8752,-3.8911,-3.8986,-3.8932,-3.9016,-3.9054,-3.9061,-3.9127,-3.9135,-3.9212,-3.9143,-3.9166,-3.9235,-3.9247,-3.9355,-3.9233,-3.9332,-3.9335,-3.932,-3.957,-3.961,-3.9795,-3.9488,-3.9492,-3.9495,0,-3.885,-3.8904,-3.907,-3.9103,-3.9134,-3.921,-3.9273,-3.9337,-3.9379,-3.9379,-3.9423,-3.9394,-3.9494,-3.9404,-3.9542,-3.9459,-3.9499,-3.9512,-3.9518,-3.9526,-3.9424,-3.9584,-3.9854,-3.9882,-3.9535,-3.9532,-3.9529,0,-3.9021,-3.9136,-3.925,-3.9275,-3.9317,-3.9372,-3.9393,-3.9429,-3.9473,-3.9529,-3.9557,-3.9625,-3.9662,-3.9716,-3.9707,-3.9642,-3.9848,-3.9757,-3.9852,-3.9852,-3.9897,-3.9894,-4.0177,-3.9924,-3.9924,-3.9923,-3.9923,0,-3.9236,-3.934,-3.9327,-3.9398,-3.9513,-3.9492,-3.9607,-3.9621,-3.9655,-3.9728,-3.9687,-3.9757,-3.9741,-3.9812,-3.9806,-3.9922,-3.9939,-3.9943,-3.994,-3.9946,-3.9946,-3.9971,-3.9958,-3.9931,-3.9929,-3.9928,-3.9926,0,-3.9446,-3.9442,-3.9563,-3.9592,-3.9602,-3.9686,-3.9712,-3.978,-3.9783,-3.9877,-3.9898,-3.9905,-3.9986,-3.9983,-4.0076,-4.0072,-4.0214,-4.0197,-4.0199,-4.0195,-4.029,-4.0281,-4.0598,-4.0639,-4.0361,-4.0364,-4.0366,0,-3.9583,-3.9661,-3.9699,-3.9744,-3.9768,-3.9842,-3.9886,-3.9869,-3.9916,-3.9971,-4.0033,-4.011,-4.017,-4.0304,-4.0318,-4.0389,-4.0373,-4.048,-4.0383,-4.0387,-4.0374,-4.0369,-4.0377,-4.0498,-4.0501,-4.0504,-4.0506,0,-3.9826,-3.982,-3.9884,-3.9948,-4.0001,-4.0051,-4.0097,-4.0137,-4.0125,-4.0181,-4.0263,-4.031,-4.0404,-4.0482,-4.0551,-4.0574,-4.0539,-4.0536,-4.0562,-4.0568,-4.0566,-4.0568,-4.0249,-4.0529,-4.0526,-4.0525,-4.0523,-4.0522,-4.0003,-4.007,-4.0107,-4.018,-4.0213,-4.0257,-4.0322,-4.0333,-4.04,-4.0474,-4.0461,-4.0553,-4.0596,-4.0684,-4.0714,-4.0787,-4.0749,-4.0787,-4.0796,-4.0805,-4.0816,-4.0556,-4.08,-4.0799,-4.0798,-4.0798,-4.0797,0,-4.0244,-4.0265,-4.0332,-4.0397,-4.0455,-4.0416,-4.0465,-4.0516,-4.0597,-4.0639,-4.0699,-4.0794,-4.087,-4.0891,-4.0964,-4.1019,-4.1005,-4.1039,-4.1034,-4.104,-4.0845,-4.0815,-4.1049,-4.1049,-4.1049,-4.1049,-4.1049,-4.1049,-4.0375,-4.0487,-4.0486,-4.0615,-4.0636,-4.0724,-4.0756,-4.0797,-4.083,-4.0937,-4.0999,-4.1011,-4.1046,-4.1122,-4.119,-4.1194,-4.1223,-4.1264,-4.1262,-4.1079,-4.1054,-4.103,-4.1001,-4.1271,-4.1271,-4.1451,-4.1453,-4.1454]},{"header":{"parameterUnit":"m.s-1","parameterCategory":1,"la1":30.2991,"la2":30.254,"lo1":-89.0895,"lo2":-89.0444,"dy":0.0017,"dx":0.0017,"nx":28,"ny":28,"refTime":"2024-08-03T09:00:00:Z","depth":0,"parameterNumber":3,"parameterNumberName":"V-component_of_WINDS"},"data":[0,0,0,0,0,0,0,0,0,0,0,0,0,0,0,0,0,0,0,0,0,0,0,0,0,0,0,0,0,0,0,0,0,0,0,0,0,0,0,0,0,0,0,0,0,0,0,0,0,0,0,0,0,0,0,0,0,0,0.716,0.716,0,0.7177,0.7177,0.7177,0.7231,0.7232,0.7233,0.7234,0.7249,0.7248,0.7247,0,0,0,0,0,0,0,0,0,0,0,0,0,0.7173,0.7173,0.716,0.716,0.7161,0.7177,0.7177,0.7177,0.7231,0.7232,0.7234,0.7235,0.7249,0.7248,0.7247,0,0,0,0,0,0,0,0,0,0,0,0,0,0.7176,0.7173,0.716,0.7189,0.7192,0.7177,0.7177,0.7177,0.723,0.7232,0.7234,0.7236,0.7249,0.7248,0.7247,0.7204,0,0,0.7243,0.7243,0,0,0,0,0,0,0,0,0.7176,0.7176,0.7185,0.7187,0.719,0.7204,0.7187,0.7186,0.723,0.7216,0.7234,0.7236,0.7232,0.7232,0.7231,0.7204,0.7205,0.7243,0.7243,0.7242,0.7242,0,0,0,0,0,0,0,0.7176,0.7176,0.7167,0.7185,0.7188,0.7201,0.7203,0.7187,0.7213,0.7217,0.7221,0.7222,0.7234,0.7232,0.7232,0.7205,0.7243,0.7242,0.7242,0.7241,0.7144,0.7142,0,0,0,0,0,0,0.7172,0.7175,0.7166,0.7167,0.7188,0.7199,0.7202,0.7197,0.7214,0.7218,0.7221,0.7225,0.7233,0.7233,0.7233,0.7183,0.7242,0.7241,0.7241,0.7146,0.7144,0.7142,0,0,0,0,0,0,0.7172,0.7171,0.7166,0.7172,0.7173,0.7197,0.7192,0.7197,0.7195,0.7217,0.7221,0.7214,0.7235,0.7234,0.7211,0.7184,0.7241,0.724,0.7148,0.7145,0.7143,0.7084,0,0,0,0,0,0,0.7172,0.717,0.7154,0.7171,0.7172,0.7143,0.719,0.7196,0.7194,0.7199,0.7212,0.7216,0.7236,0.7212,0.721,0.7184,0.7239,0.7151,0.7147,0.7144,0.7088,0.7079,0.7071,0,0,0,0,0,0.7172,0.7136,0.7153,0.7152,0.7153,0.7142,0.7142,0.7167,0.7191,0.7175,0.7189,0.7215,0.7188,0.7209,0.7207,0.718,0.7153,0.7148,0.7144,0.7092,0.7081,0.7072,0,0,0,0,0,0,0.7114,0.7139,0.7158,0.7127,0.7132,0.7151,0.7131,0.7155,0.7152,0.7157,0.7188,0.719,0.7162,0.7169,0.7192,0.714,0.7175,0.717,0.7136,0.7126,0.7118,0.7116,0.7238,0,0,0,0,0,0.7098,0.7088,0.711,0.708,0.7082,0.7106,0.7102,0.7121,0.7127,0.713,0.7142,0.7146,0.7139,0.7133,0.7127,0.709,0.7093,0.7071,0.7062,0.7056,0.705,0.7031,0.7021,0.7128,0.7128,0.7128,0,0,0.7063,0.7076,0.7067,0.7068,0.7075,0.7063,0.7107,0.7093,0.7084,0.7127,0.7106,0.7115,0.7122,0.7091,0.7078,0.7096,0.7022,0.705,0.7044,0.7043,0.7026,0.7015,0.7006,0.7125,0.7125,0.7126,0,0,0.6995,0.7003,0.6979,0.6985,0.6995,0.7012,0.7006,0.7022,0.703,0.7009,0.7041,0.7032,0.7018,0.7022,0.7022,0.6956,0.698,0.6954,0.691,0.6891,0.6882,0.6875,0.6851,0.6842,0.6949,0.6949,0.6949,0,0.695,0.6934,0.6964,0.6947,0.6947,0.6987,0.6963,0.6967,0.6973,0.6972,0.6993,0.6977,0.6985,0.6955,0.694,0.6939,0.6933,0.6951,0.6881,0.6874,0.6868,0.6845,0.6836,0.6945,0.6946,0.6946,0.6947,0,0.6879,0.6868,0.6847,0.6854,0.6851,0.6831,0.6857,0.6851,0.6871,0.6885,0.6863,0.6875,0.6872,0.6867,0.6885,0.684,0.6851,0.6876,0.6911,0.6854,0.6833,0.6824,0.6941,0.6942,0.6943,0.6944,0,0,0.6771,0.6796,0.6788,0.6792,0.6806,0.6798,0.6779,0.6778,0.6772,0.6776,0.676,0.6749,0.6773,0.6773,0.6793,0.6776,0.6723,0.6803,0.6804,0.6787,0.6673,0.6653,0.6642,0.674,0.6738,0.6737,0.6672,0,0.6705,0.6676,0.6703,0.6668,0.6657,0.6696,0.6681,0.6687,0.6701,0.6694,0.6709,0.67,0.6732,0.6732,0.6718,0.6732,0.67,0.6738,0.6725,0.6724,0.672,0.6631,0.661,0.6548,0.6664,0.6663,0.6662,0,0.6623,0.6625,0.6589,0.6607,0.6603,0.6588,0.659,0.6583,0.6591,0.6602,0.6603,0.6628,0.6611,0.6647,0.6624,0.6649,0.6646,0.6652,0.665,0.6648,0.6688,0.6626,0.6529,0.6519,0.6649,0.665,0.6651,0,0.6547,0.654,0.6518,0.652,0.654,0.6529,0.6537,0.6547,0.6545,0.6546,0.6545,0.6544,0.6542,0.6541,0.6564,0.6589,0.6538,0.6576,0.6545,0.6545,0.6531,0.6531,0.6431,0.6532,0.6532,0.6532,0.6532,0,0.6469,0.6446,0.6484,0.647,0.6445,0.6477,0.645,0.6462,0.6472,0.646,0.6495,0.6483,0.6516,0.6508,0.6527,0.6504,0.6503,0.6511,0.6516,0.6507,0.6506,0.6504,0.6508,0.6529,0.653,0.653,0.6531,0,0.6379,0.6404,0.6382,0.6404,0.6409,0.6389,0.6407,0.6395,0.6412,0.6397,0.6396,0.6421,0.6414,0.6438,0.6434,0.6447,0.6413,0.6426,0.641,0.6413,0.6381,0.6383,0.6274,0.6261,0.6371,0.637,0.637,0,0.6327,0.631,0.633,0.6326,0.6332,0.6324,0.6322,0.6353,0.635,0.6359,0.6346,0.6341,0.6339,0.6325,0.6343,0.634,0.6352,0.6314,0.6352,0.6343,0.635,0.635,0.6348,0.6306,0.6304,0.6303,0.6302,0,0.6231,0.6245,0.6242,0.6243,0.624,0.6242,0.6246,0.6241,0.6274,0.6268,0.6262,0.626,0.6257,0.6252,0.6253,0.6261,0.6286,0.6291,0.6283,0.6273,0.6264,0.6268,0.6387,0.6293,0.6294,0.6294,0.6295,0.6295,0.6158,0.6144,0.6157,0.6152,0.6159,0.6163,0.6152,0.6169,0.6164,0.6164,0.6183,0.6172,0.6182,0.6187,0.6192,0.6184,0.6201,0.6191,0.6188,0.6184,0.6178,0.6267,0.6184,0.6185,0.6185,0.6185,0.6186,0,0.6063,0.6074,0.6069,0.6075,0.6071,0.6098,0.6104,0.6099,0.609,0.6097,0.6095,0.6087,0.6083,0.6101,0.6099,0.6089,0.6101,0.6087,0.6088,0.6089,0.6163,0.6169,0.6078,0.6078,0.6078,0.6078,0.6078,0.6078,0.6013,0.5992,0.6007,0.599,0.6001,0.5991,0.5993,0.5996,0.6003,0.5993,0.599,0.6002,0.6014,0.6014,0.6011,0.6016,0.6013,0.5995,0.6004,0.6073,0.6084,0.6093,0.6099,0.5995,0.5994,0.5931,0.593,0.5929]}]]